Tracking 25686 objects as of 26-May-2022
HD Live streaming from Space Station
objects crossing your sky now

MESHBED

Track MESHBED now!
10-day predictions


NORAD ID: 44806
Int'l Code: 2019-081C
Perigee: 480.5 km
Apogee: 494.1 km
Inclination: 97.4 °
Period: 94.2 minutes
Semi major axis: 6858 km
RCS: Unknown
Launch date: November 27, 2019
Source: United States (US)
Launch site: SRIHARIKOTA (SRI)
aabbcc
Your satellite tracking list
Your tracking list is empty




NASA's NSSDC Master Catalog

Two Line Element Set (TLE):
1 44806U 19081C   22145.71814457  .00027042  00000-0  97250-3 0  9993
2 44806  97.4032 211.0476 0009886 296.6291  63.3936 15.28546960138431
Source of the keplerian elements: AFSPC